This is the latest recevied weather packets stored in our database for station/object KB1ZFK. If no packets are shown the sender has not sent any weather packets the latest 10 day(s).
| Time | Temp. | Humidity | Pressure | Rain* | Wind** | Luminosity | Snow |
|---|---|---|---|---|---|---|---|
| 1777999471 | 27.22° C | 38% | 1006.7 hPa | 0 mm | - | 835 W/m² | - |
| 1777999169 | 27.22° C | 39% | 1006.6 hPa | 0 mm | - | 830 W/m² | - |
| 1777998868 | 26.67° C | 41% | 1006.8 hPa | 0 mm | - | 688 W/m² | - |
| 1777998567 | 26.67° C | 41% | 1006.8 hPa | 0 mm | - | 750 W/m² | - |
| 1777998262 | 26.11° C | 40% | 1007.1 hPa | 0 mm | - | 797 W/m² | - |
| 1777997959 | 25.56° C | 41% | 1007.4 hPa | 0 mm | - | 786 W/m² | - |
| 1777997656 | 25.56° C | 42% | 1007.4 hPa | 0 mm | - | 823 W/m² | - |
| 1777997353 | 25.56° C | 42% | 1007.5 hPa | 0 mm | - | 802 W/m² | - |
| 1777997051 | 25.56° C | 42% | 1007.6 hPa | 0 mm | - | 812 W/m² | - |
| 1777996747 | 25.56° C | 42% | 1007.6 hPa | 0 mm | - | 812 W/m² | - |
| 1777996443 | 25.56° C | 42% | 1007.7 hPa | 0 mm | - | 755 W/m² | - |
| 1777996141 | 25° C | 44% | 1008 hPa | 0 mm | - | 739 W/m² | - |
| 1777995836 | 25° C | 43% | 1007.8 hPa | 0 mm | - | 727 W/m² | - |
| 1777995533 | 24.44° C | 44% | 1007.8 hPa | 0 mm | - | 722 W/m² | - |
| 1777995230 | 24.44° C | 44% | 1008.2 hPa | 0 mm | - | 734 W/m² | - |
| 1777994927 | 24.44° C | 44% | 1008.1 hPa | 0 mm | - | 761 W/m² | - |
| 1777994624 | 23.89° C | 46% | 1008.3 hPa | 0 mm | - | 745 W/m² | - |
| 1777994318 | 23.33° C | 48% | 1008.4 hPa | 0 mm | - | 737 W/m² | - |
| 1777994015 | 22.78° C | 49% | 1008.3 hPa | 0 mm | - | 308 W/m² | - |
| 1777993712 | 22.22° C | 49% | 1008.4 hPa | 0 mm | - | 260 W/m² | - |
| 1777993409 | 21.67° C | 50% | 1008.4 hPa | 0 mm | - | 420 W/m² | - |
| 1777993103 | 21.67° C | 50% | 1008.6 hPa | 0 mm | - | 205 W/m² | - |
| 1777992802 | 21.67° C | 51% | 1008.4 hPa | 0 mm | - | 189 W/m² | - |
| 1777992499 | 21.67° C | 51% | 1008.6 hPa | 0 mm | - | 198 W/m² | - |
| 1777992198 | 22.22° C | 50% | 1008.5 hPa | 0 mm | - | 313 W/m² | - |
* Rain latest hour (hover to see other rain measurements)
** Current wind speed in m/s (hover to see current wind gust speed)